Flag for Germany Weather past 2 weeks in Filderstadt, Baden-Württemberg, Germany

Now
36 °F

Light rain. Low clouds.


Feels Like: 32 °F
Forecast: 27 / 38 °F
Wind: 5 mph from West

Location: Stuttgart-Echterdingen

Current Time: Feb 27, 2015 at 10:38:09 PM

Latest Report: Feb 27, 2015 at 9:00 PM


Visibility: 5 mi

Pressure: 30.14 "Hg

Humidity: 93%

Dew point: 34 °F

Location of FilderstadtLocation

Historic Weather in Filderstadt — Graph

°F

Filderstadt temperature yesterday

Maximum temperature yesterday: 49 °F (at 3:00 PM)
Minimum temperature yesterday: 26 °F (at 6:00 AM)
Average temperature yesterday: 36 °F

Past Weeks' High & Low Weather Summary

 TemperatureHumidityPressure
High55 °F (Feb 20, 3:00 PM)98% (Feb 17, 4:00 AM)30.78 "Hg (Feb 17, 4:00 AM)
Low24 °F (Feb 13, 8:00 AM)38% (Feb 20, 4:00 PM)29.55 "Hg (Feb 23, 5:00 PM)
Average35 °F80%30.07 "Hg
* Reported Feb 12 9:00 PM — Feb 27 9:00 PM, Filderstadt, Weather by CustomWeather, © 2015

Note: Actual official high and low records may vary slightly from our data, if they occured in-between our weather recording intervals... More about our weather records

Advertising

Filderstadt weather history for previous 24 hours

 ConditionsComfort  
Time TempWeatherWind HumidityBarometerVisibility
9:00 PM
Fri, Feb 27
36 °FLight rain. Low clouds.5 mph93%30.14 "Hg5 mi
8:00 PM36 °FLight rain. Low clouds.7 mph92%30.11 "Hg6 mi
7:00 PM36 °FLight rain. Low clouds.7 mph93%30.08 "Hg5 mi
6:00 PM36 °FLight rain. Low clouds.6 mph92%30.04 "Hg4 mi
5:00 PM37 °FLight rain. Low clouds.5 mph91%30.00 "Hg6 mi
3:00 PM38 °FLight rain. Low clouds.5 mph92%29.94 "Hg5 mi
2:00 PM37 °FLight rain. Low clouds.3 mph92%29.92 "Hg4 mi
1:00 PM36 °FLight rain. Low clouds.1 mph92%29.91 "Hg4 mi
12:00 PM36 °FRain. Low clouds.1 mph93%29.90 "Hg4 mi
11:00 AM35 °FDrizzle. Low clouds.2 mph92%29.88 "Hg4 mi
10:00 AM36 °FLight rain. Low clouds.1 mph87%29.86 "Hg4 mi
9:00 AM36 °FLight rain. Overcast.No wind74%29.84 "Hg31 mi
8:00 AM35 °FLight rain. Overcast.1 mph68%29.84 "Hg40 mi
7:00 AM34 °FOvercast.1 mph76%29.84 "Hg37 mi
6:00 AM35 °FOvercast.1 mph76%29.84 "Hg31 mi
5:00 AM33 °FOvercast.1 mph80%29.86 "Hg31 mi
4:00 AM33 °FOvercast.1 mph83%29.88 "Hg31 mi
3:00 AM33 °FOvercast.1 mph80%29.90 "Hg31 mi
2:00 AM33 °FOvercast.1 mph77%29.93 "Hg31 mi
1:00 AM34 °FOvercast.1 mph69%29.95 "Hg25 mi
12:00 AM34 °FPassing clouds.1 mph66%29.97 "Hg25 mi
11:00 PM
Thu, Feb 26
35 °FPassing clouds.1 mph60%29.99 "Hg31 mi
Weather by CustomWeather, © 2015

See weather overviewHow to use our weather pages